Regional Weather Roundup
Issued by NWS New Orleans/Baton Rouge, LA

Home | Current Version | Previous Version | Text Only | Print | Product List | Glossary On
Versions: 1 2 3 4 5 6 7 8 9 10 11 12 13 14 15 16 17 18 19 20 21 22 23 24 25 26 27 28 29 30 31 32 33 34 35 36 37 38 39 40 41 42 43 44 45 46 47 48 49 50
229
ASUS44 KLIX 271305
RWRLIX
NEW ORLEANS REGIONAL WEATHER ROUNDUP
NATIONAL WEATHER SERVICE NEW ORLEANS LA
700 AM CST THU NOV 27 2014

NOTE: "FAIR" INDICATES FEW OR NO CLOUDS BELOW 12,000 FEET WITH NO
      SIGNIFICANT WEATHER AND/OR OBSTRUCTIONS TO VISIBILITY.
      SKY/WX - SKY CONDITION AND SIGNIFICANT WEATHER.
      TMP - AIR TEMPERATURE.     DP    - DEWPOINT TEMPERATURE.
      RH  - RELATIVE HUMIDITY.   PRES  - PRESSURE.
      HI  - HEAT INDEX.          WCI   - WIND CHILL INDEX.

*  THESE STATIONS ARE NOT NWS OR FAA STATIONS AND ARE NOT UNDER
   NWS QUALITY CONTROL.

LAZ038-040-048-061>063-065>067-069-271400-
SOUTHEAST LOUISIANA

CITY           SKY/WX    TMP DP  RH WIND       PRES   REMARKS
N.O. AUDUBON     N/A     53  41  64 MISG        N/A
N.O. INTL ARPT CLEAR     51  39  63 N9        30.40R
N.O. LAKEFRONT CLEAR     54  40  59 N17       30.40R
N.O. DOWNTOWN*   N/A     54  37  54 N5        30.40R
SLIDELL        CLEAR     44  38  79 N7        30.39R
BATON ROUGE    CLEAR     45  35  68 N3        30.42R
BOOTHVILLE     CLEAR     54  47  77 N8        30.39R
BELLE CHASSE   CLEAR     49  40  71 NW3       30.39R
BOGALUSA*        N/A     36  33  89 CALM      30.42R
NEW ROADS*       N/A     41  36  81 N5        30.44R
GONZALES*        N/A     44  41  89 NW6       30.42R
HAMMOND*       CLEAR     41  37  87 N3        30.44R
HOUMA*         CLEAR     48  41  76 N7        30.41R
PORT FOURCHON* SUNNY     54  45  71 N6          N/A

$$

MSZ070-080>082-271400-
SOUTHERN MISSISSIPPI

CITY           SKY/WX    TMP DP  RH WIND       PRES   REMARKS
MCCOMB         CLEAR     42  32  67 NW8       30.41R
GULFPORT       CLEAR     42  38  85 NW5       30.38R
BILOXI         CLEAR     47  40  76 VRB2      30.37R
PASCAGOULA     CLEAR     35  34  96 CALM      30.37R
STENNIS ARPT*  CLEAR     45  36  70 N6        30.39

$$

COASTAL OBSERVATIONS
LAKE AND NEARSHORE STATIONS

STATION/POSITION TIME  TEMP    WIND        PRES    WAVE
                       AIR SEA DIR/SP/G            HT/PER
                 (UTC) (F)     (DEG/KT/KT) (MB)    (FT/S)
PASCAGOULA       1300   47     330/  6/  9 1027.5
WAVELAND YACHT   1300   47     330/  8/ 11 1027.7
GRAND ISLE       1300   56 59  350/  9/ 13 1029.3
SOUTHWEST PASS   1300   59                 1029.0
NEW CANAL        1300   54 54  350/ 12/ 15 1029.4
SHELL BEACH      1300   55 52  330/ 11/ 12 1028.6

OFFSHORE STATIONS

STATION/POSITION TIME  TEMP    WIND        PRES    WAVE
                       AIR SEA DIR/SP/G            HT/PER
                 (UTC) (F)     (DEG/KT/KT) (MB)    (FT/S)
64 S DAUPHIN ISL 1238   61 70  350/ 17/ 21 1028.6    5/ 5

$$




USA.gov is the U.S. government's official web portal to all federal, state and local government web resources and services.